Location: Владивосток
(43.1151°N, 131.8856°E)
Time: 11:26:07
(UTC+10:00)

NOAA 16 DEB - Visible Passes

Search period start: 25 May 2025 00:00
Search period end: 04 June 2025 00:00
Orbit: 644 x 710 km, 99.0° (Epoch: 23 May)

Date Brightness Start Highest point End Pass type
(mag) Time Alt. Az. Time Alt. Az. Time Alt. Az.
25 May ? 00:25:11 10° NE 00:28:22 27° E 00:28:22 27° E visible
25 May ? 02:02:14 10° N 02:06:13 31° WNW 02:06:43 30° W visible
26 May ? 00:59:31 10° NNE 01:03:40 60° ENE 01:03:40 60° ENE visible
26 May ? 02:38:04 10° NNW 02:40:42 15° WNW 02:42:01 14° W visible
26 May ? 23:58:43 10° ENE 00:00:35 14° E 00:00:35 14° E visible
27 May ? 01:34:19 10° N 01:38:49 58° WNW 01:38:56 58° W visible
28 May ? 00:32:14 10° NE 00:35:49 31° E 00:35:49 31° E visible
28 May ? 02:09:31 10° N 02:13:23 27° WNW 02:14:10 26° W visible
29 May ? 01:06:35 10° NNE 01:11:01 72° E 01:11:01 72° E visible
29 May ? 02:45:27 10° NNW 02:47:45 14° WNW 02:49:22 12° W visible
30 May ? 00:05:24 10° NE 00:07:51 17° E 00:07:51 17° E visible
30 May ? 01:41:22 10° N 01:45:49 51° WNW 01:46:11 50° W visible
31 May ? 00:39:03 10° NNE 00:42:59 36° E 00:42:59 36° E visible
31 May ? 02:16:34 10° N 02:20:16 25° WNW 02:21:19 23° W visible
01 Jun ? 01:13:24 10° NNE 01:18:03 83° ESE 01:18:05 82° ESE visible
01 Jun ? 02:52:39 10° NW 02:54:31 12° WNW 02:56:25 10° W visible
02 Jun ? 00:11:53 10° NE 00:14:50 19° E 00:14:50 19° E visible
02 Jun ? 01:48:09 10° N 01:52:34 45° WNW 01:53:10 43° W visible
03 Jun ? 00:45:38 10° NNE 00:49:52 42° E 00:49:52 42° E visible
03 Jun ? 02:23:20 10° NNW 02:26:54 22° WNW 02:28:12 20° W visible
